Погода в Славгороде

Погода в Славгороде : погода сейчас, прогноз погоды и архив. Всё, что Вы хотите узнать о погоде в Славгороде!

Хотите узнать прогноз погоды в Славгороде? Тогда Вам сюда: Погода в Славгороде

Поиск расширенной информации на нашем сайте:

Другие новости

Новости СМИ2

Главная страница сайта

Новости сайта

03.07.2017

Напоминаем, что на нашем специализированном сайте Метеоцентр.Азия вы можете получить высокодетализированные автоматические прогнозы погоды по пунктам России, СНГ и мира в авиационном формате (включающие направление и скорость ветра, видимость, явления погоды, количество и форму облачности, нижнюю и верхнюю границу облачности).


Погода в Славгороде - сегодня

Время (UTC), дата Ветер
(°,м/с) 
Видим.   Явления Облачность Т
(°С)
Тd
(°С)
f(%) Тe
(°С)
Pmin
(гПа)
dP
(гПа)
Po
(мм)
O2
(г/м3)
Тmin Tmax R s Состояние
почвы
06 16.06.18 060 (СВ) 20000 м  {ливн. осадки}  10/4 600 м кучево-дожд., верхняя 
[Cb cap|Ci sp]
+20.4 +12.5 60 +25  1008.3  0.7  745  277           
09 16.06.18 300 (СЗ) 20000 м    8/4 600 м кучево-дожд., верхняя 
[Cb cap|Ci sp]
+23.3 +9.2 41 +24  1008.6  0.4  746  275           
12 16.06.18 290 (З) 20000 м    10/6 720 м кучево-дожд., верхняя 
[Cb cap|Ci sp]
+21.1 +9.8 48 +22  1009.4  0.6  746  277    +23.5  0.5     
15 16.06.18 270 (З) 20000 м    8/8 660 м кучево-дожд. 
[Cb cap]
+19 +9.3 53 +21  1009.5  746  279           
00 17.06.18 090 (В) 20000 м  {гроза, ливн. осадки}  6/6 600 м кучево-дожд. 
[Cb cap]
+15 +13.4 90 +22  1007.4  -1.8  744  282  +13.9      влажная 
03 17.06.18 100 (В) 20000 м    4/0 верхняя 
[Ci fib]
+20.4 +14.1 67 +28  1006.1  -1.1  744  276           
06 17.06.18 110 (В) 20000 м    3/0 верхняя 
[Ci sp]
+24.1 +13.7 52 +31  1004.1  -1.7  742  272           
09 17.06.18 120 (ЮВ) 20000 м    1/0 верхняя 
[Ci sp]
+27.9 +11.8 37 +32  1002.1  -1.8  741  269           
12 17.06.18 210 (ЮЗ) 20000 м    4/0 верхняя 
[Ci sp]
+29.1 +10.9 32 +32  999.9  -2.2  739  267    +29.2       
21 17.06.18 320 (СЗ) 5{12}  20000 м    4/3 600 м кучево-дожд., верхняя 
[Cb cap|Ci sp]
+13.4 +10.2 81 +15  1003.3  -0.3  741  283           
00 18.06.18 020 (С) 20000 м    10/3 600 м кучево-дожд., верхняя 
[Cb cap|Ci sp]
+15.2 +8.8 66 +15  1002.2  -1  741  281  +13.2        сухая 
03 18.06.18 030 (СВ) 20000 м    8/0 средняя, верхняя 
[Ac trans|Ci sp]
+21.3 +11.1 52 +24  1001.5  -0.4  740  275           
06 18.06.18 020 (С) 20000 м    9/5 600 м кучево-дожд., средняя, верхняя 
[Cb cap|Ac trans|Ci sp]
+23.4 +10.9 45 +26  1000.8  -0.6  740  273           
09 18.06.18 310 (СЗ) 20000 м    8/3 600 м кучево-дожд., средняя, верхняя 
[Cb cap|Ac trans|Ci sp]
+24.5 +10.5 41 +27  999.9  -0.7  739  271           
12 18.06.18 330 (СЗ) 5{12}  20000 м    8/0 средняя, верхняя 
[Ac trans|Ci sp]
+20.8 +10.8 53 +23  1001.2  740  275    +25.9       
15 18.06.18 350 (С) 2{11}  20000 м    4/0 верхняя 
[Ci sp]
+17.9 +10.1 60 +21  1001.3  740  278           
18 18.06.18 030 (СВ) 20000 м    ясно 
+13.8 +10 78 +15  1000.7  -0.9  739  282           
21 18.06.18 070 (В) 20000 м    ясно 
+13.8 +10.6 81 +16  998.7  -1.9  738  281           
00 19.06.18 080 (В) 20000 м    6/4 600 м кучево-дожд., верхняя 
[Cb cap|Ci sp]
+15.6 +12.9 84 +22  997.4  -1.1  737  278  +12.4        сухая 
12 19.06.18 280 (З) 5{17}  20000 м  {гроза, ливн. осадки}  8/6 700 м кучево-дожд., верхняя 
[Cb cap|Ci sp]
+19.9 +11.6 59 +24  1000.4  4.8  739  276    +23.3     
15 19.06.18 220 (ЮЗ) 2{11}  20000 м    3/1 600 м кучево-дожд., верхняя 
[Cb cap|Ci sp]
+17.4 +13.5 78 +24  1002.2  1.7  741  278           
18 19.06.18 210 (ЮЗ) 20000 м    ясно 
+13.4 +10.8 84 +15  1003.6  1.1  742  283           
21 19.06.18 230 (ЮЗ) 20000 м    ясно 
+13 +10.9 87 +16  1003.4  -0.2  741  283           
00 20.06.18 200 (Ю) 20000 м    3/1 600 м верхняя 
[Sc|Ci sp]
+13.8 +12.1 89 +18  1004  0.6  742  282  +11.5        влажная 
03 20.06.18 240 (ЮЗ) 20000 м    1/0 верхняя 
[Ci sp]
+21.5 +10.9 51 +24  1003.6  742  275           
Время (UTC), дата Ветер
(°,м/с) 
Видим.   Явления Облачность Т
(°С)
Тd
(°С)
f(%) Тe
(°С)
Pmin
(гПа)
dP
(гПа)
Po
(мм)
O2
(г/м3)
Тmin Tmax R s Состояние
почвы

Для получения пояснительной информации подведите курсор к названию столбца.

ПОГОДА в Славгороде - архив

Всё, что Вы хотите узнать о погоде в Славгороде - удобно и подробно!

Выберите нужную дату (начиная с 1 января 2015* года) и нажмите кнопку "Найти".
Будут отображены архивные сводки погоды по пункту Славгород, начиная с указанной даты.


Отображать данные в формате CSV (для использования в таблицах Excel)


Внимание! Наш архив погоды предназначен исключительно для личного некоммерческого использования в познавательных целях. Если Вам необходимы официальные справки о состоянии погоды (для производственных, юридических, коммерческих и т.п. целей), обращайтесь в органы Росгидромета.

*Примечание: данная дата относится к архиву по метеостанциям СССР (Россия, СНГ, Балтия).
Архив по метеостанциям Зарубежной Европы и Азии (кроме Китая) хранится 10 дней, по другим регионам земного шара (Китай, Африка, Америка, Австралия, Океания) - 1 день.

Славгород - район местоположения метеостанции


Название, широта, долгота, высота метеостанции:
Славгород 53°ш. 78.6°д. 126 м над ур. моря [Российская Федерация]

Дополнительная информация

В oтличие oт бoльшинства пoгoдных сайтoв мы публикуем пoдрoбную метеoинфoрмацию в детальнoм прoфессиoнальнoм фoрмате.

Характеристики температуры и влажнoсти вoздуха измеряются на высoте 2 м в тени вдали oт зданий и деревьев.
Скoрoсть ветра измеряется на высoте 10 м (на урoвне рoста челoвека скoрoсть ветра ниже в 1.5-2 раза). Если метеoстанция нахoдится в гoрoде или в лесу, тo скoрoсть ветра занижена на 2-4 м/с пo сравнению с oткрытым местoм. Скoрoсть ветра над акватoриями крупных рек и oзёр, а также на вершинах хoлмoв на 2-5 м/с выше, чем в oбычных услoвиях.
Атмoсфернoе давление в разных тoчках местнoсти мoжет значительнo oтличаться oт давления на метеoстанции, в зависимoсти oт услoвий рельефа (при пoдъёме на 10 м давление пoнижается примернo на 1 мм рт.ст.).